Home > Weather > Copenhagen > Past weeks

Flag for Denmark Weather for the Past 2 Weeks in Copenhagen, Denmark

Now
32 °F

Passing clouds.


Feels Like: 24 °F
Forecast: 30 / 36 °F
Wind: 9 mph from Northeast

Location: Koebenhavn-Kastrup Airport

Current Time: Feb 13, 2016 at 9:08:11 PM

Latest Report: Feb 13, 2016 at 8:20 PM


Visibility: N/A

Pressure: 29.42 "Hg

Humidity: 100%

Dew point: 32 °F

Location of CopenhagenLocation

Historic Weather in Copenhagen — Graph

°F

Copenhagen Temperature Yesterday

Maximum temperature yesterday: 37 °F (at 10:50 AM)
Minimum temperature yesterday: 28 °F (at 7:50 PM)
Average temperature yesterday: 33 °F

High & Low Weather Summary for the Past Weeks

 TemperatureHumidityPressure
High48 °F (Feb 1, 7:20 PM)100% (Jan 30, 5:50 AM)30.09 "Hg (Jan 30, 5:50 AM)
Low28 °F (Feb 12, 7:50 PM)56% (Feb 12, 2:20 PM)28.80 "Hg (Feb 10, 2:21 AM)
Average39 °F86%29.49 "Hg
* Reported Jan 29 7:20 PM — Feb 13 7:50 PM, Copenhagen, Weather by CustomWeather, © 2016

Note: Actual official high and low records may vary slightly from our data, if they occured in-between our weather recording intervals... More about our weather records

Advertising

Copenhagen Weather History for the Previous 24 Hours

 ConditionsComfort  
Time TempWeatherWind HumidityBarometerVisibility
7:50 PM
Sat, Feb 13
34 °FPartly cloudy.9 mph87%29.45 "HgN/A
7:20 PM32 °FPassing clouds.10 mph93%29.42 "Hg5 mi
6:50 PM34 °FLow clouds.8 mph93%29.45 "Hg6 mi
6:20 PM32 °FLow clouds.9 mph100%29.45 "Hg6 mi
5:50 PM32 °FPassing clouds.8 mph93%29.45 "HgN/A
5:20 PM32 °FPassing clouds.6 mph93%29.45 "HgN/A
4:50 PM32 °FPartly sunny.6 mph93%29.45 "HgN/A
4:20 PM34 °FPartly sunny.7 mph87%29.45 "HgN/A
3:50 PM34 °FPartly sunny.6 mph87%29.45 "HgN/A
3:20 PM34 °FPartly sunny.7 mph87%29.45 "HgN/A
2:50 PM34 °FPartly sunny.7 mph87%29.45 "HgN/A
2:20 PM34 °FPartly sunny.6 mph87%29.45 "HgN/A
1:50 PM34 °FPartly sunny.6 mph87%29.47 "HgN/A
1:20 PM34 °FPartly sunny.6 mph87%29.47 "HgN/A
12:50 PM32 °FPartly sunny.6 mph93%29.47 "HgN/A
12:20 PM32 °FBroken clouds.6 mph93%29.47 "HgN/A
11:50 AM32 °FBroken clouds.5 mph93%29.47 "HgN/A
11:20 AM32 °FBroken clouds.3 mph93%29.50 "HgN/A
10:50 AM32 °FBroken clouds.5 mph93%29.50 "HgN/A
10:20 AM32 °FBroken clouds.7 mph93%29.50 "HgN/A
9:50 AM32 °FBroken clouds.8 mph93%29.50 "HgN/A
9:20 AM32 °FLight snow. Broken clouds.8 mph93%29.50 "HgN/A
8:50 AM30 °FPartly sunny.8 mph100%29.50 "HgN/A
8:20 AM30 °FLight snow. Partly sunny.6 mph100%29.50 "HgN/A
7:50 AM30 °FLight snow. Broken clouds.9 mph93%29.50 "Hg4 mi
7:20 AM28 °FLight snow. Partly cloudy.8 mph100%29.50 "Hg1 mi
6:50 AM28 °FLight snow. Passing clouds.7 mph100%29.50 "Hg1 mi
6:20 AM28 °FLight snow. Passing clouds.7 mph100%29.50 "Hg1 mi
5:50 AM28 °FLight snow. Partly cloudy.8 mph100%29.53 "Hg1 mi
5:20 AM28 °FSnow. Passing clouds.7 mph100%29.53 "Hg1 mi
4:20 AM28 °FLight snow. Passing clouds.6 mph100%29.53 "Hg5 mi
3:20 AM30 °FLight snow. Passing clouds.5 mph86%29.53 "Hg1 mi
2:20 AM32 °FLight snow. Passing clouds.5 mph80%29.53 "Hg4 mi
1:50 AM32 °FLight snow. Partly cloudy.2 mph69%29.53 "HgN/A
1:20 AM30 °FLight snow. Passing clouds.1 mph80%29.56 "HgN/A
12:50 AM30 °FPassing clouds.1 mph80%29.56 "HgN/A
12:20 AM30 °FPassing clouds.1 mph75%29.56 "HgN/A
11:50 PM
Fri, Feb 12
30 °FPassing clouds.No wind80%29.56 "HgN/A
11:20 PM30 °FPassing clouds.No wind75%29.56 "HgN/A
10:20 PM30 °FClear.1 mph75%29.56 "Hg10 mi
9:50 PM30 °FClear.1 mph75%29.56 "Hg10 mi
9:20 PM30 °FClear.1 mph75%29.56 "Hg10 mi
Weather by CustomWeather, © 2016

See weather overviewHow to use our weather pages